Location: Newark
(33.6439°N, 114.9881°W)
Time: 07:40:01
(UTC+00:00)

A-11 Canister half - Pass Details

Date: 24 August 2019
Orbit: 1527 x 1682 km, 47.3° (Epoch: 20 September)

Event Time Altitude Azimuth Distance (km) Brightness Sun altitude
Rises 17:43:04 0° 221° (SW) 4,778 11.5 54.6°
Reaches altitude 10° 17:46:08 10° 219° (SW) 3,815 11.2 55.1°
Maximum altitude 17:55:49 70° 137° (SE) 1,725 11.4 56.8°
Drops below altitude 10° 18:05:49 10° 57° (ENE) 3,932 11.4 58.4°
Sets 18:09:01 0° 55° (NE) 4,930 11.8 58.9°
